"Period start","avg(HW err(1)/warn(2) (#))","avg(Visibility (m))","avg(Weather code (#))","avg(Precip intensity (mm/h))","min(HW err(1)/warn(2) (#))","max(HW err(1)/warn(2) (#))","std(HW err(1)/warn(2) (#))","med(HW err(1)/warn(2) (#))","min(Visibility (m))","max(Visibility (m))","std(Visibility (m))","med(Visibility (m))","min(Weather code (#))","max(Weather code (#))","std(Weather code (#))","med(Weather code (#))","min(Precip intensity (mm/h))","max(Precip intensity (mm/h))","std(Precip intensity (mm/h))","med(Precip intensity (mm/h))"
2017-04-06 00:00:00,2,39932,0,0.00,2,2,0,2,29774,50000,7132,38608,0,0,0,0,0.00,0.00,0.00,0.00
2017-04-06 00:10:00,2,48696,0,0.00,2,2,0,2,44129,50000,2014,50000,0,0,0,0,0.00,0.00,0.00,0.00
2017-04-06 00:20:00,2,46214,0,0.00,2,2,0,2,37932,50000,4601,48464,0,0,0,0,0.00,0.00,0.00,0.00
2017-04-06 00:30:00,2,43198,0,0.00,2,2,0,2,22008,50000,8014,45249,0,0,0,0,0.00,0.00,0.00,0.00
2017-04-06 00:40:00,2,36603,0,0.00,2,2,0,2,22608,50000,9407,38570,0,0,0,0,0.00,0.00,0.00,0.00
2017-04-06 00:50:00,2,41164,0,0.00,2,2,0,2,23986,50000,7783,42779,0,0,0,0,0.00,0.00,0.00,0.00
2017-04-06 01:00:00,2,40394,0,0.00,2,2,0,2,24110,50000,7613,39973,0,0,0,0,0.00,0.00,0.00,0.00
2017-04-06 01:10:00,2,41249,0,0.00,2,2,0,2,17884,50000,10464,44518,0,0,0,0,0.00,0.00,0.00,0.00
2017-04-06 01:20:00,2,31898,0,0.00,2,2,0,2,24059,50000,7408,29265,0,0,0,0,0.00,0.00,0.00,0.00
2017-04-06 01:30:00,2,43233,0,0.00,2,2,0,2,30769,50000,6932,44202,0,0,0,0,0.00,0.00,0.00,0.00
2017-04-06 01:40:00,2,43760,0,0.00,2,2,0,2,30721,50000,6429,47270,0,0,0,0,0.00,0.00,0.00,0.00
2017-04-06 01:50:00,2,37360,0,0.00,2,2,0,2,18529,50000,10756,39620,0,0,0,0,0.00,0.00,0.00,0.00
2017-04-06 02:00:00,2,36426,0,0.00,2,2,0,2,28394,50000,7676,34942,0,0,0,0,0.00,0.00,0.00,0.00
2017-04-06 02:10:00,2,40305,0,0.00,2,2,0,2,25597,50000,7492,39944,0,0,0,0,0.00,0.00,0.00,0.00
2017-04-06 02:20:00,2,42239,0,0.00,2,2,0,2,28622,50000,8456,45360,0,0,0,0,0.00,0.00,0.00,0.00
2017-04-06 02:30:00,2,35516,0,0.00,2,2,0,2,26962,48856,7192,34038,0,0,0,0,0.00,0.00,0.00,0.00
2017-04-06 02:40:00,2,39762,0,0.00,2,2,0,2,27117,47758,6930,40092,0,0,0,0,0.00,0.00,0.00,0.00
2017-04-06 02:50:00,2,36349,0,0.00,2,2,0,2,24261,48943,6785,35982,0,0,0,0,0.00,0.00,0.00,0.00
2017-04-06 03:00:00,2,40876,0,0.00,2,2,0,2,28497,50000,7422,42864,0,0,0,0,0.00,0.00,0.00,0.00
2017-04-06 03:10:00,2,40468,0,0.00,2,2,0,2,28449,50000,5557,41132,0,0,0,0,0.00,0.00,0.00,0.00
2017-04-06 03:20:00,2,33038,0,0.00,2,2,0,2,16737,50000,11865,35508,0,0,0,0,0.00,0.00,0.00,0.00
2017-04-06 03:30:00,2,42029,0,0.00,2,2,0,2,27179,50000,7051,43649,0,0,0,0,0.00,0.00,0.00,0.00
2017-04-06 03:40:00,2,29838,0,0.00,2,2,0,2,20367,41496,6827,29222,0,0,0,0,0.00,0.00,0.00,0.00
2017-04-06 03:50:00,2,24873,0,0.00,2,2,0,2,14159,35379,6848,24958,0,0,0,0,0.00,0.00,0.00,0.00
2017-04-06 04:00:00,2,27085,0,0.00,2,2,0,2,21482,35511,4011,27374,0,0,0,0,0.00,0.00,0.00,0.00
2017-04-06 04:10:00,2,24042,0,0.00,2,2,0,2,15760,34773,7544,20272,0,0,0,0,0.00,0.00,0.00,0.00
2017-04-06 04:20:00,2,41057,0,0.00,2,2,0,2,32161,49458,5386,41223,0,0,0,0,0.00,0.00,0.00,0.00
2017-04-06 04:30:00,2,36090,0,0.00,2,2,0,2,26626,44637,4919,36476,0,0,0,0,0.00,0.00,0.00,0.00
2017-04-06 04:40:00,2,33952,0,0.00,2,2,0,2,17173,45894,8947,35692,0,0,0,0,0.00,0.00,0.00,0.00
2017-04-06 04:50:00,2,34433,0,0.00,2,2,0,2,28357,45160,5933,31328,0,0,0,0,0.00,0.00,0.00,0.00
2017-04-06 05:00:00,2,40176,0,0.00,2,2,0,2,26860,50000,8500,42154,0,0,0,0,0.00,0.00,0.00,0.00
2017-04-06 05:10:00,2,37945,0,0.00,2,2,0,2,26623,50000,6336,36822,0,0,0,0,0.00,0.00,0.00,0.00
2017-04-06 05:20:00,2,46460,0,0.00,2,2,0,2,32794,50000,5812,49245,0,0,0,0,0.00,0.00,0.00,0.00
2017-04-06 05:30:00,2,37825,0,0.00,2,2,0,2,25634,50000,8676,38790,0,0,0,0,0.00,0.00,0.00,0.00
2017-04-06 05:40:00,2,37510,0,0.00,2,2,0,2,28794,50000,5719,35759,0,0,0,0,0.00,0.00,0.00,0.00
2017-04-06 05:50:00,2,40301,0,0.00,2,2,0,2,25242,50000,6740,41286,0,0,0,0,0.00,0.00,0.00,0.00
2017-04-06 06:00:00,2,36350,0,0.00,2,2,0,2,30728,45732,4464,35514,0,0,0,0,0.00,0.00,0.00,0.00
2017-04-06 06:10:00,2,42310,0,0.00,2,2,0,2,30427,50000,5942,44152,0,0,0,0,0.00,0.00,0.00,0.00
2017-04-06 06:20:00,2,42877,0,0.00,2,2,0,2,29864,50000,5357,44323,0,0,0,0,0.00,0.00,0.00,0.00
2017-04-06 06:30:00,2,32834,0,0.00,2,2,0,2,25507,42791,4791,32826,0,0,0,0,0.00,0.00,0.00,0.00
2017-04-06 06:40:00,2,36267,0,0.00,2,2,0,2,26596,46894,6369,34414,0,0,0,0,0.00,0.00,0.00,0.00
2017-04-06 06:50:00,2,32353,0,0.00,2,2,0,2,16170,42432,7124,32995,0,0,0,0,0.00,0.00,0.00,0.00
2017-04-06 07:00:00,2,35208,0,0.00,2,2,0,2,26700,48366,6410,36098,0,0,0,0,0.00,0.00,0.00,0.00
2017-04-06 07:10:00,2,31254,0,0.00,2,2,0,2,25755,37464,3382,31167,0,0,0,0,0.00,0.00,0.00,0.00
2017-04-06 07:20:00,2,31309,0,0.00,2,2,0,2,22728,41576,5299,31140,0,0,0,0,0.00,0.00,0.00,0.00
2017-04-06 07:30:00,2,31690,0,0.00,2,2,0,2,23428,44764,6012,32680,0,0,0,0,0.00,0.00,0.00,0.00
2017-04-06 07:40:00,2,32846,0,0.00,2,2,0,2,28473,39250,3322,32070,0,0,0,0,0.00,0.00,0.00,0.00
2017-04-06 07:50:00,2,30956,0,0.00,2,2,0,2,21347,34930,3855,31571,0,0,0,0,0.00,0.00,0.00,0.00
2017-04-06 08:00:00,2,33776,0,0.00,2,2,0,2,23924,42404,5509,34383,0,0,0,0,0.00,0.00,0.00,0.00
2017-04-06 08:10:00,2,33768,0,0.00,2,2,0,2,22436,39006,5457,37327,0,0,0,0,0.00,0.00,0.00,0.00
2017-04-06 08:20:00,2,35813,0,0.00,2,2,0,2,28473,44103,4397,35240,0,0,0,0,0.00,0.00,0.00,0.00
2017-04-06 08:30:00,2,34004,0,0.00,2,2,0,2,27257,41009,4090,34719,0,0,0,0,0.00,0.00,0.00,0.00
2017-04-06 08:40:00,2,33155,0,0.00,2,2,0,2,28336,41042,4150,33372,0,0,0,0,0.00,0.00,0.00,0.00
2017-04-06 08:50:00,2,32732,0,0.00,2,2,0,2,23128,39075,4774,32780,0,0,0,0,0.00,0.00,0.00,0.00
2017-04-06 09:00:00,2,37168,0,0.00,2,2,0,2,28776,44716,5436,35715,0,0,0,0,0.00,0.00,0.00,0.00
2017-04-06 09:10:00,2,35922,0,0.00,2,2,0,2,28548,44403,4702,36098,0,0,0,0,0.00,0.00,0.00,0.00
2017-04-06 09:20:00,2,34650,0,0.00,2,2,0,2,30461,39254,3253,34780,0,0,0,0,0.00,0.00,0.00,0.00
2017-04-06 09:30:00,2,37978,0,0.00,2,2,0,2,31107,42685,3314,37488,0,0,0,0,0.00,0.00,0.00,0.00
2017-04-06 09:40:00,2,37304,0,0.00,2,2,0,2,26168,45994,6803,39840,0,0,0,0,0.00,0.00,0.00,0.00
2017-04-06 09:50:00,2,38163,0,0.00,2,2,0,2,31361,45502,4789,37000,0,0,0,0,0.00,0.00,0.00,0.00
2017-04-06 10:00:00,2,36095,0,0.00,2,2,0,2,28978,45716,4828,34808,0,0,0,0,0.00,0.00,0.00,0.00
2017-04-06 10:10:00,2,42013,0,0.00,2,2,0,2,36936,46178,2974,41518,0,0,0,0,0.00,0.00,0.00,0.00
2017-04-06 10:20:00,2,37741,0,0.00,2,2,0,2,29962,47106,5802,36051,0,0,0,0,0.00,0.00,0.00,0.00
2017-04-06 10:30:00,2,42196,0,0.00,2,2,0,2,37103,48301,3399,41648,0,0,0,0,0.00,0.00,0.00,0.00
2017-04-06 10:40:00,2,45763,0,0.00,2,2,0,2,42139,50000,2498,45994,0,0,0,0,0.00,0.00,0.00,0.00
2017-04-06 10:50:00,2,42250,0,0.00,2,2,0,2,37014,48825,4012,40810,0,0,0,0,0.00,0.00,0.00,0.00
2017-04-06 11:00:00,2,40729,0,0.00,2,2,0,2,31823,49220,5603,41819,0,0,0,0,0.00,0.00,0.00,0.00
2017-04-06 11:10:00,2,38508,0,0.00,2,2,0,2,35657,40913,1323,38680,0,0,0,0,0.00,0.00,0.00,0.00
2017-04-06 11:20:00,2,42765,0,0.00,2,2,0,2,35103,48343,4180,42484,0,0,0,0,0.00,0.00,0.00,0.00
2017-04-06 11:30:00,2,39362,0,0.00,2,2,0,2,34638,49255,4128,37754,0,0,0,0,0.00,0.00,0.00,0.00
2017-04-06 11:40:00,2,38300,0,0.00,2,2,0,2,33423,42529,3409,38222,0,0,0,0,0.00,0.00,0.00,0.00
2017-04-06 11:50:00,2,36751,0,0.00,2,2,0,2,31905,40609,2970,37842,0,0,0,0,0.00,0.00,0.00,0.00
2017-04-06 12:00:00,2,31652,0,0.00,2,2,0,2,28289,33908,1836,32377,0,0,0,0,0.00,0.00,0.00,0.00
2017-04-06 12:10:00,2,35102,0,0.00,2,2,0,2,28965,39804,2768,35701,0,0,0,0,0.00,0.00,0.00,0.00
2017-04-06 12:20:00,2,29035,0,0.00,2,2,0,2,19661,33468,3970,29486,0,0,0,0,0.00,0.00,0.00,0.00
2017-04-06 12:30:00,2,19669,0,0.00,2,2,0,2,17963,21163,1222,19798,0,0,0,0,0.00,0.00,0.00,0.00
2017-04-06 12:40:00,2,14681,53,0.01,2,2,0,2,9722,20765,3386,15550,0,78,35,74,0.00,0.05,0.02,0.00
2017-04-06 12:50:00,2,6326,78,0.07,2,2,0,2,2622,10100,2183,6477,77,78,0,78,0.00,0.35,0.13,0.00
2017-04-06 13:00:00,2,4849,71,0.36,2,2,0,2,3350,6339,934,4966,71,71,0,71,0.10,0.80,0.25,0.30
2017-04-06 13:10:00,2,6297,71,0.20,2,2,0,2,4354,8673,1302,6315,71,71,0,71,0.00,0.45,0.18,0.10
2017-04-06 13:20:00,2,5143,71,0.21,2,2,0,2,2444,9249,1824,5024,71,71,0,71,0.00,0.50,0.14,0.17
2017-04-06 13:30:00,2,4188,71,0.12,2,2,0,2,3311,4985,546,4219,71,71,0,71,0.05,0.40,0.11,0.05
2017-04-06 13:40:00,2,5138,71,0.07,2,2,0,2,4251,7422,835,5038,71,71,0,71,0.00,0.15,0.05,0.10
2017-04-06 13:50:00,2,7702,71,0.20,2,2,0,2,4900,9528,1563,7664,71,71,0,71,0.05,0.70,0.20,0.08
2017-04-06 14:00:00,2,8648,71,0.09,2,2,0,2,5671,11326,1792,8963,71,71,0,71,0.00,0.35,0.11,0.05
2017-04-06 14:10:00,2,7831,73,0.03,2,2,0,2,4055,9480,1513,8226,71,77,3,71,0.00,0.15,0.06,0.00
2017-04-06 14:20:00,2,10624,73,0.17,2,2,0,2,6491,14021,2219,9915,71,77,3,71,0.00,0.70,0.22,0.08
2017-04-06 14:30:00,2,14198,73,0.03,2,2,0,2,8956,19849,3462,13450,71,77,3,71,0.00,0.15,0.05,0.00
2017-04-06 14:40:00,2,20093,36,0.00,2,2,0,2,13080,26681,4425,21016,0,77,36,36,0.00,0.00,0.00,0.00
2017-04-06 14:50:00,2,19063,0,0.00,2,2,0,2,13787,24542,3362,19636,0,0,0,0,0.00,0.00,0.00,0.00
2017-04-06 15:00:00,2,30045,0,0.00,2,2,0,2,21840,35482,4542,30497,0,0,0,0,0.00,0.00,0.00,0.00
2017-04-06 15:10:00,2,26946,0,0.00,2,2,0,2,22666,32440,2522,26332,0,0,0,0,0.00,0.00,0.00,0.00
2017-04-06 15:20:00,2,27243,7,0.00,2,2,0,2,20256,34784,5173,26690,0,71,21,0,0.00,0.00,0.00,0.00
2017-04-06 15:30:00,2,23540,77,0.01,2,2,0,2,17559,31599,4044,22878,71,78,2,78,0.00,0.05,0.02,0.00
2017-04-06 15:40:00,2,26950,8,0.00,2,2,0,2,12901,34354,5923,28047,0,78,23,0,0.00,0.00,0.00,0.00
2017-04-06 15:50:00,2,26332,0,0.00,2,2,0,2,22119,30447,2255,26266,0,0,0,0,0.00,0.00,0.00,0.00
2017-04-06 16:00:00,2,35198,0,0.00,2,2,0,2,29476,47267,5236,33335,0,0,0,0,0.00,0.00,0.00,0.00
2017-04-06 16:10:00,2,40382,0,0.00,2,2,0,2,31874,47624,4914,39739,0,0,0,0,0.00,0.00,0.00,0.00
2017-04-06 16:20:00,2,40299,0,0.00,2,2,0,2,34251,48500,4894,39312,0,0,0,0,0.00,0.00,0.00,0.00
2017-04-06 16:30:00,2,40059,0,0.00,2,2,0,2,33312,49594,5384,38925,0,0,0,0,0.00,0.00,0.00,0.00
2017-04-06 16:40:00,2,37520,0,0.00,2,2,0,2,34616,43259,2320,37049,0,0,0,0,0.00,0.00,0.00,0.00
2017-04-06 16:50:00,2,34081,0,0.00,2,2,0,2,27606,39503,3577,33715,0,0,0,0,0.00,0.00,0.00,0.00
2017-04-06 17:00:00,2,34556,0,0.00,2,2,0,2,30035,39465,3161,35183,0,0,0,0,0.00,0.00,0.00,0.00
2017-04-06 17:10:00,2,42957,0,0.00,2,2,0,2,36945,47480,3151,43191,0,0,0,0,0.00,0.00,0.00,0.00
2017-04-06 17:20:00,2,43111,0,0.00,2,2,0,2,35700,50000,4388,43078,0,0,0,0,0.00,0.00,0.00,0.00
2017-04-06 17:30:00,2,45225,0,0.00,2,2,0,2,39162,50000,3388,45344,0,0,0,0,0.00,0.00,0.00,0.00
2017-04-06 17:40:00,2,41102,0,0.00,2,2,0,2,33068,50000,5460,40674,0,0,0,0,0.00,0.00,0.00,0.00
2017-04-06 17:50:00,2,43570,0,0.00,2,2,0,2,34533,50000,5144,44086,0,0,0,0,0.00,0.00,0.00,0.00
2017-04-06 18:00:00,2,43856,0,0.00,2,2,0,2,38572,48832,3896,42693,0,0,0,0,0.00,0.00,0.00,0.00
2017-04-06 18:10:00,2,49225,0,0.00,2,2,0,2,46036,50000,1517,50000,0,0,0,0,0.00,0.00,0.00,0.00
2017-04-06 18:20:00,2,49308,0,0.00,2,2,0,2,46526,50000,1101,50000,0,0,0,0,0.00,0.00,0.00,0.00
2017-04-06 18:30:00,2,44250,0,0.00,2,2,0,2,39923,50000,3031,43607,0,0,0,0,0.00,0.00,0.00,0.00
2017-04-06 18:40:00,2,49713,0,0.00,2,2,0,2,48298,50000,574,50000,0,0,0,0,0.00,0.00,0.00,0.00
2017-04-06 18:50:00,2,49879,0,0.00,2,2,0,2,48788,50000,364,50000,0,0,0,0,0.00,0.00,0.00,0.00
2017-04-06 19:00:00,2,49974,0,0.00,2,2,0,2,49737,50000,79,50000,0,0,0,0,0.00,0.00,0.00,0.00
2017-04-06 19:10:00,2,50000,0,0.00,2,2,0,2,50000,50000,0,50000,0,0,0,0,0.00,0.00,0.00,0.00
2017-04-06 19:20:00,2,49906,0,0.00,2,2,0,2,49059,50000,282,50000,0,0,0,0,0.00,0.00,0.00,0.00
2017-04-06 19:30:00,2,50000,0,0.00,2,2,0,2,50000,50000,0,50000,0,0,0,0,0.00,0.00,0.00,0.00
2017-04-06 19:40:00,2,49967,0,0.00,2,2,0,2,49671,50000,99,50000,0,0,0,0,0.00,0.00,0.00,0.00
2017-04-06 19:50:00,2,50000,0,0.00,2,2,0,2,50000,50000,0,50000,0,0,0,0,0.00,0.00,0.00,0.00
2017-04-06 20:00:00,2,50000,0,0.00,2,2,0,2,50000,50000,0,50000,0,0,0,0,0.00,0.00,0.00,0.00
2017-04-06 20:10:00,2,50000,0,0.00,2,2,0,2,50000,50000,0,50000,0,0,0,0,0.00,0.00,0.00,0.00
2017-04-06 20:20:00,2,50000,0,0.00,2,2,0,2,50000,50000,0,50000,0,0,0,0,0.00,0.00,0.00,0.00
2017-04-06 20:30:00,2,50000,0,0.00,2,2,0,2,50000,50000,0,50000,0,0,0,0,0.00,0.00,0.00,0.00
2017-04-06 20:40:00,2,50000,0,0.00,2,2,0,2,50000,50000,0,50000,0,0,0,0,0.00,0.00,0.00,0.00
2017-04-06 20:50:00,2,49545,0,0.00,2,2,0,2,46233,50000,1128,50000,0,0,0,0,0.00,0.00,0.00,0.00
2017-04-06 21:00:00,2,49933,0,0.00,2,2,0,2,49391,50000,182,50000,0,0,0,0,0.00,0.00,0.00,0.00
2017-04-06 21:10:00,2,50000,0,0.00,2,2,0,2,50000,50000,0,50000,0,0,0,0,0.00,0.00,0.00,0.00
2017-04-06 21:20:00,2,49209,0,0.00,2,2,0,2,46365,50000,1349,50000,0,0,0,0,0.00,0.00,0.00,0.00
2017-04-06 21:30:00,2,48909,0,0.00,2,2,0,2,46956,50000,1211,49360,0,0,0,0,0.00,0.00,0.00,0.00
2017-04-06 21:40:00,2,49980,0,0.00,2,2,0,2,49803,50000,59,50000,0,0,0,0,0.00,0.00,0.00,0.00
2017-04-06 21:50:00,2,50000,0,0.00,2,2,0,2,50000,50000,0,50000,0,0,0,0,0.00,0.00,0.00,0.00
2017-04-06 22:00:00,2,49322,0,0.00,2,2,0,2,44203,50000,1731,50000,0,0,0,0,0.00,0.00,0.00,0.00
2017-04-06 22:10:00,2,49486,0,0.00,2,2,0,2,45892,50000,1236,50000,0,0,0,0,0.00,0.00,0.00,0.00
2017-04-06 22:20:00,2,49670,0,0.00,2,2,0,2,48145,50000,667,50000,0,0,0,0,0.00,0.00,0.00,0.00
2017-04-06 22:30:00,2,49107,0,0.00,2,2,0,2,42528,50000,2212,50000,0,0,0,0,0.00,0.00,0.00,0.00
2017-04-06 22:40:00,2,48660,0,0.00,2,2,0,2,40024,50000,2930,50000,0,0,0,0,0.00,0.00,0.00,0.00
2017-04-06 22:50:00,2,48670,0,0.00,2,2,0,2,43295,50000,2197,50000,0,0,0,0,0.00,0.00,0.00,0.00
2017-04-06 23:00:00,2,46234,0,0.00,2,2,0,2,34943,50000,4804,48101,0,0,0,0,0.00,0.00,0.00,0.00
2017-04-06 23:10:00,2,44624,0,0.00,2,2,0,2,34613,50000,5558,45698,0,0,0,0,0.00,0.00,0.00,0.00
2017-04-06 23:20:00,2,48281,0,0.00,2,2,0,2,45337,50000,1858,48932,0,0,0,0,0.00,0.00,0.00,0.00
2017-04-06 23:30:00,2,43515,0,0.00,2,2,0,2,36961,50000,3421,42772,0,0,0,0,0.00,0.00,0.00,0.00
2017-04-06 23:40:00,2,47905,0,0.00,2,2,0,2,40659,50000,3346,49606,0,0,0,0,0.00,0.00,0.00,0.00
2017-04-06 23:50:00,2,47227,0,0.00,2,2,0,2,37765,50000,4550,49708,0,0,0,0,0.00,0.00,0.00,0.00
